Flag for New Zealand Weather past 2 weeks in Dunedin, New Zealand

Now
36 °F

Chilly.


Feels Like: 31 °F
Forecast: 36 / 45 °F
Wind: 6 mph from West

Location: Christchurch Airport

Current Time: May 24, 2015 at 1:41:11 AM

Latest Report: May 24, 2015 at 1:00 AM


Visibility: N/A

Pressure: 29.53 "Hg

Humidity: 93%

Dew point: 34 °F

Location of DunedinLocation

Historic Weather in Dunedin — Graph

°F

Dunedin temperature yesterday

Maximum temperature yesterday: 59 °F (at 2:00 PM)
Minimum temperature yesterday: 25 °F (at 7:00 AM)
Average temperature yesterday: 40 °F

Past Weeks' High & Low Weather Summary

 TemperatureHumidityPressure
High72 °F (May 21, 1:00 PM)100% (May 10, 8:30 PM)30.21 "Hg (May 10, 8:30 PM)
Low25 °F (May 23, 7:00 AM)31% (May 23, 2:00 PM)29.12 "Hg (May 12, 7:00 AM)
Average50 °F73%29.68 "Hg
* Reported Midnight between May 8 and May 9 — May 24 12:30 AM, Dunedin, Weather by CustomWeather, © 2015

Note: Actual official high and low records may vary slightly from our data, if they occured in-between our weather recording intervals... More about our weather records

Advertising

Dunedin weather history for previous 24 hours

 ConditionsComfort  
Time TempWeatherWind HumidityBarometerVisibility
12:30 AM
Sun, May 24
37 °FChilly.6 mph93%29.56 "HgN/A
12:00 AM34 °FPassing clouds.3 mph93%29.56 "HgN/A
11:30 PM
Sat, May 23
34 °FPassing clouds.2 mph93%29.56 "HgN/A
11:00 PM36 °FChilly.2 mph93%29.56 "HgN/A
10:30 PM36 °FChilly.5 mph100%29.56 "HgN/A
10:00 PM32 °FChilly.2 mph93%29.56 "HgN/A
9:30 PM37 °FChilly.2 mph93%29.56 "HgN/A
9:00 PM39 °FChilly.5 mph93%29.56 "HgN/A
8:30 PM41 °FQuite cool.3 mph87%29.59 "HgN/A
8:00 PM43 °FQuite cool.3 mph81%29.59 "HgN/A
7:30 PM43 °FQuite cool.5 mph76%29.59 "HgN/A
7:00 PM45 °FQuite cool.3 mph76%29.59 "HgN/A
6:30 PM45 °FQuite cool.No wind76%29.59 "HgN/A
6:00 PM48 °FCool.9 mph66%29.59 "HgN/A
5:30 PM48 °FCool.3 mph66%29.56 "HgN/A
5:00 PM54 °FCool.2 mph47%29.56 "HgN/A
4:30 PM57 °FRefreshingly cool.1 mph44%29.56 "HgN/A
4:00 PM57 °FRefreshingly cool.2 mph44%29.59 "HgN/A
3:30 PM59 °FRefreshingly cool.1 mph39%29.59 "HgN/A
3:00 PM57 °FRefreshingly cool.2 mph36%29.59 "HgN/A
2:30 PM59 °FRefreshingly cool.3 mph34%29.59 "HgN/A
2:00 PM59 °FRefreshingly cool.1 mph31%29.59 "HgN/A
1:30 PM57 °FRefreshingly cool.2 mph39%29.62 "HgN/A
1:00 PM55 °FRefreshingly cool.2 mph44%29.62 "HgN/A
12:30 PM54 °FCool.3 mph51%29.65 "HgN/A
12:00 PM54 °FCool.1 mph51%29.65 "HgN/A
11:30 AM50 °FCool.2 mph54%29.68 "HgN/A
11:00 AM48 °FCool.3 mph62%29.68 "HgN/A
10:30 AM46 °FCool.No wind66%29.68 "HgN/A
10:00 AM41 °FQuite cool.1 mph81%29.68 "HgN/A
9:30 AM36 °FChilly.1 mph87%29.68 "HgN/A
9:00 AM30 °FChilly.2 mph93%29.68 "HgN/A
8:30 AM27 °FChilly.1 mph86%29.65 "HgN/A
8:00 AM25 °FCold.2 mph93%29.68 "HgN/A
7:30 AM25 °FCold.3 mph100%29.65 "HgN/A
7:00 AM25 °FCold.2 mph93%29.65 "HgN/A
6:30 AM27 °FChilly.2 mph100%29.65 "HgN/A
6:00 AM27 °FChilly.3 mph100%29.65 "HgN/A
5:30 AM27 °FChilly.1 mph100%29.68 "HgN/A
5:00 AM27 °FChilly.2 mph93%29.68 "HgN/A
4:30 AM28 °FChilly.3 mph93%29.68 "HgN/A
4:00 AM28 °FChilly.2 mph93%29.71 "HgN/A
3:30 AM28 °FChilly.1 mph93%29.71 "HgN/A
3:00 AM30 °FChilly.3 mph93%29.74 "HgN/A
2:30 AM30 °FChilly.3 mph93%29.74 "HgN/A
2:00 AM28 °FChilly.1 mph93%29.74 "HgN/A
1:30 AM30 °FChilly.2 mph93%29.77 "HgN/A
1:00 AM32 °FChilly.5 mph93%29.77 "HgN/A
Weather by CustomWeather, © 2015

See weather overviewHow to use our weather pages